Tracking 19170 objects as of 22-May-2018
HD Live streaming from Space Station
objects crossing your sky now

PSLV R/B

Track PSLV R/B now!
10-day predictions


NORAD ID: 25759
Int'l Code: 1999-029D
Perigee: 707.4 km
Apogee: 733.1 km
Inclination: 98.4 °
Period: 99.0 minutes
Semi major axis: 7091 km
RCS: 6.2552 m2 (large)
Launch date: May 26, 1999
Source: India (IND)
Launch site: SRIHARIKOTA (SRI)

Note: This is a ROCKET BODY
aabbcc
Your satellite tracking list
Your tracking list is empty




NASA's NSSDC Master Catalog

Two Line Element Set (TLE):
1 25759U 99029D   18141.76967094 +.00000004 +00000-0 +12193-4 0  9994
2 25759 098.4185 068.5292 0018174 276.2871 136.3717 14.53845932006694
Source of the keplerian elements: AFSPC